This is the latest recevied weather packets stored in our database for station/object N6ZHV-13. If no packets are shown the sender has not sent any weather packets the latest 10 day(s).
| Time | Temp. | Humidity | Pressure | Rain* | Wind** | Luminosity | Snow |
|---|---|---|---|---|---|---|---|
| 1788026231 | 30.56° C | 46% | 1008.6 hPa | 0 mm | - | - | - |
| 1788025931 | 31.11° C | 48% | 1008.9 hPa | 0 mm | - | - | - |
| 1788025631 | 31.11° C | 47% | 1008.8 hPa | 0 mm | - | - | - |
| 1788025331 | 31.11° C | 47% | 1009 hPa | 0 mm | - | - | - |
| 1788025031 | 30.56° C | 48% | 1009 hPa | 0 mm | - | - | - |
| 1788024731 | 30.56° C | 49% | 1009.2 hPa | 0 mm | - | - | - |
| 1788024431 | 30° C | 48% | 1009.2 hPa | 0 mm | - | - | - |
| 1788024131 | 30.56° C | 49% | 1009.2 hPa | 0 mm | - | - | - |
| 1788023831 | 30° C | 50% | 1009.2 hPa | 0 mm | - | - | - |
| 1788023531 | 30° C | 50% | 1009.2 hPa | 0 mm | - | - | - |
| 1788023231 | 29.44° C | 51% | 1009.2 hPa | 0 mm | - | - | - |
| 1788022931 | 29.44° C | 52% | 1009.2 hPa | 0 mm | - | - | - |
| 1788022631 | 29.44° C | 53% | 1009.2 hPa | 0 mm | - | - | - |
| 1788022331 | 29.44° C | 54% | 1009.2 hPa | 0 mm | - | - | - |
| 1788022031 | 28.89° C | 55% | 1009.3 hPa | 0 mm | - | - | - |
| 1788021731 | 28.89° C | 56% | 1009.2 hPa | 0 mm | - | - | - |
| 1788021431 | 28.89° C | 56% | 1009.2 hPa | 0 mm | - | - | - |
| 1788021131 | 28.33° C | 57% | 1009.1 hPa | 0 mm | - | - | - |
| 1788020831 | 28.33° C | 59% | 1009 hPa | 0 mm | - | - | - |
| 1788020544 | 27.78° C | 61% | 1008.9 hPa | 0 mm | - | - | - |
| 1788020231 | 27.78° C | 61% | 1008.9 hPa | 0 mm | - | - | - |
| 1788019931 | 27.22° C | 61% | 1008.8 hPa | 0 mm | - | - | - |
| 1788019631 | 27.22° C | 62% | 1008.7 hPa | 0 mm | - | - | - |
| 1788019331 | 27.22° C | 62% | 1008.6 hPa | 0 mm | - | - | - |
| 1788019031 | 27.22° C | 62% | 1008.5 hPa | 0 mm | - | - | - |
* Rain latest hour (hover to see other rain measurements)
** Current wind speed in m/s (hover to see current wind gust speed)